| time (UTC) | temp F | wind direction | speed MPH | gust MPH | rain 1hr in | rain 24hr in | rain mn in | humidity % | barometer mb |
| 20260903050007 | 81 | 264 | 0.0 | 0.0 | 0.00 | 0.00 | 0.00 | 77 | 1013.5 |
| 20260903045504 | 81 | 264 | 0.0 | 0.0 | 0.00 | 0.00 | 0.00 | 77 | 1013.4 |
| 20260903044503 | 81 | 264 | 0.0 | 0.0 | 0.00 | 0.00 | 0.00 | 78 | 1013.3 |
| 20260903044005 | 81 | 264 | 0.0 | 0.0 | 0.00 | 0.00 | 0.00 | 78 | 1013.3 |
| 20260903043503 | 81 | 264 | 0.0 | 0.0 | 0.00 | 0.00 | 0.00 | 78 | 1013.3 |
| 20260903043006 | 82 | 264 | 0.0 | 0.0 | 0.00 | 0.00 | 0.00 | 78 | 1013.4 |
| 20260903042504 | 82 | 264 | 0.0 | 0.0 | 0.00 | 0.00 | 0.00 | 77 | 1013.4 |
| 20260903042005 | 82 | 264 | 0.0 | 0.0 | 0.00 | 0.00 | 0.00 | 77 | 1013.5 |
| 20260903041504 | 82 | 264 | 0.0 | 0.0 | 0.00 | 0.00 | 0.00 | 77 | 1013.4 |
| 20260903040503 | 82 | 264 | 0.0 | 0.0 | 0.00 | 0.00 | 0.00 | 77 | 1013.4 |
| 20260903040009 | 83 | 264 | 0.0 | 0.0 | 0.00 | 0.00 | 0.00 | 76 | 1013.4 |
| 20260903035504 | 83 | 264 | 0.0 | 0.0 | 0.00 | 0.00 | 0.00 | 75 | 1013.4 |
| 20260903035005 | 83 | 264 | 0.0 | 0.0 | 0.00 | 0.00 | 0.00 | 75 | 1013.4 |
| 20260903034503 | 83 | 264 | 0.0 | 0.0 | 0.00 | 0.00 | 0.00 | 75 | 1013.4 |
| 20260903034005 | 83 | 264 | 0.0 | 2.0 | 0.00 | 0.00 | 0.00 | 74 | 1013.4 |
| 20260903033506 | 83 | 264 | 0.0 | 2.0 | 0.00 | 0.00 | 0.00 | 74 | 1013.4 |
| 20260903033007 | 84 | 237 | 0.0 | 2.0 | 0.00 | 0.00 | 0.00 | 74 | 1013.3 |
| 20260903032503 | 84 | 237 | 0.0 | 3.0 | 0.00 | 0.00 | 0.00 | 74 | 1013.3 |
| 20260903032008 | 84 | 259 | 0.0 | 3.0 | 0.00 | 0.00 | 0.00 | 74 | 1013.3 |
| 20260903031506 | 84 | 236 | 0.0 | 2.0 | 0.00 | 0.00 | 0.00 | 74 | 1013.2 |
| 20260903031004 | 84 | 234 | 0.0 | 1.0 | 0.00 | 0.00 | 0.00 | 75 | 1013.2 |
| 20260903030503 | 84 | 234 | 0.0 | 0.0 | 0.00 | 0.00 | 0.00 | 74 | 1013.1 |
| 20260903025504 | 84 | 234 | 0.0 | 0.0 | 0.00 | 0.00 | 0.00 | 74 | 1013.2 |
| 20260903025006 | 84 | 234 | 0.0 | 0.0 | 0.00 | 0.00 | 0.00 | 74 | 1013.3 |
| 20260903024005 | 85 | 234 | 0.0 | 0.0 | 0.00 | 0.00 | 0.00 | 73 | 1013.4 |
| 20260903023504 | 85 | 234 | 0.0 | 2.0 | 0.00 | 0.00 | 0.00 | 73 | 1013.3 |
| 20260903023005 | 85 | 234 | 0.0 | 2.0 | 0.00 | 0.00 | 0.00 | 73 | 1013.3 |
| 20260903022504 | 85 | 239 | 0.0 | 1.0 | 0.00 | 0.00 | 0.00 | 72 | 1013.3 |
| 20260903022006 | 85 | 239 | 0.0 | 1.0 | 0.00 | 0.00 | 0.00 | 72 | 1013.2 |
| 20260903021504 | 85 | 239 | 0.0 | 1.0 | 0.00 | 0.00 | 0.00 | 72 | 1013.1 |
| 20260903021007 | 85 | 239 | 0.0 | 1.0 | 0.00 | 0.00 | 0.00 | 72 | 1013.0 |
| 20260903020504 | 85 | 239 | 0.0 | 1.0 | 0.00 | 0.00 | 0.00 | 72 | 1013.1 |
| 20260903020007 | 85 | 238 | 0.0 | 0.0 | 0.00 | 0.00 | 0.00 | 72 | 1012.9 |
| 20260903015504 | 86 | 238 | 0.0 | 1.0 | 0.00 | 0.00 | 0.00 | 71 | 1013.0 |
| 20260903015006 | 86 | 238 | 0.0 | 3.0 | 0.00 | 0.00 | 0.00 | 71 | 1013.0 |
| 20260903014504 | 86 | 239 | 0.0 | 3.0 | 0.00 | 0.00 | 0.00 | 71 | 1013.0 |
| 20260903014004 | 86 | 259 | 0.0 | 3.0 | 0.00 | 0.00 | 0.00 | 70 | 1013.0 |
| 20260903013504 | 86 | 259 | 0.0 | 3.0 | 0.00 | 0.00 | 0.00 | 70 | 1012.8 |
| 20260903013005 | 86 | 286 | 0.0 | 2.0 | 0.00 | 0.00 | 0.00 | 70 | 1012.9 |
| 20260903012505 | 86 | 294 | 0.0 | 2.0 | 0.00 | 0.00 | 0.00 | 70 | 1012.8 |
| 20260903012006 | 87 | 294 | 0.0 | 3.0 | 0.00 | 0.00 | 0.00 | 69 | 1012.6 |
| 20260903011005 | 87 | 253 | 0.0 | 1.0 | 0.00 | 0.00 | 0.00 | 68 | 1012.6 |
| 20260903010504 | 87 | 253 | 0.0 | 1.0 | 0.00 | 0.00 | 0.00 | 68 | 1012.5 |
| 20260903010008 | 87 | 253 | 0.0 | 1.0 | 0.00 | 0.00 | 0.00 | 68 | 1012.5 |
| 20260903005005 | 87 | 252 | 0.0 | 2.0 | 0.00 | 0.00 | 0.00 | 68 | 1012.4 |
| 20260903004005 | 87 | 259 | 0.0 | 1.0 | 0.00 | 0.00 | 0.00 | 68 | 1012.5 |
| 20260903003006 | 88 | 259 | 0.0 | 0.0 | 0.00 | 0.00 | 0.00 | 67 | 1012.5 |
| 20260903002503 | 88 | 259 | 0.0 | 1.0 | 0.00 | 0.00 | 0.00 | 67 | 1012.6 |
| 20260903001503 | 88 | 259 | 0.0 | 3.0 | 0.00 | 0.00 | 0.00 | 65 | 1012.5 |
| 20260903001005 | 89 | 288 | 0.0 | 3.0 | 0.00 | 0.00 | 0.00 | 65 | 1012.6 |
| 20260903000504 | 89 | 285 | 0.0 | 0.0 | 0.00 | 0.00 | 0.00 | 64 | 1012.6 |
| 20260903000007 | 89 | 285 | 0.0 | 2.0 | 0.00 | 0.00 | 0.00 | 63 | 1012.7 |
| 20260902235503 | 89 | 285 | 0.0 | 2.0 | 0.00 | 0.00 | 0.00 | 62 | 1012.8 |
| 20260902235004 | 90 | 251 | 0.0 | 2.0 | 0.00 | 0.00 | 0.00 | 64 | 1012.9 |
| 20260902234503 | 90 | 252 | 0.0 | 1.0 | 0.00 | 0.00 | 0.00 | 63 | 1012.8 |
| 20260902233502 | 90 | 252 | 1.0 | 7.0 | 0.00 | 0.00 | 0.00 | 62 | 1012.8 |
| 20260902232503 | 91 | 302 | 1.0 | 3.0 | 0.00 | 0.00 | 0.00 | 60 | 1012.7 |
| 20260902232004 | 91 | 249 | 1.0 | 3.0 | 0.00 | 0.00 | 0.00 | 61 | 1012.7 |
| 20260902231004 | 91 | 254 | 0.0 | 2.0 | 0.00 | 0.00 | 0.00 | 58 | 1012.7 |
| 20260902230503 | 91 | 252 | 1.0 | 6.0 | 0.00 | 0.00 | 0.00 | 58 | 1012.7 |
| 20260902225506 | 92 | 250 | 0.0 | 4.0 | 0.00 | 0.00 | 0.00 | 58 | 1012.7 |
| 20260902225005 | 92 | 250 | 1.0 | 4.0 | 0.00 | 0.00 | 0.00 | 57 | 1012.8 |
| 20260902224005 | 92 | 306 | 0.0 | 3.0 | 0.00 | 0.00 | 0.00 | 56 | 1013.0 |
| 20260902223503 | 92 | 207 | 1.0 | 4.0 | 0.00 | 0.00 | 0.00 | 56 | 1013.0 |
| 20260902222503 | 93 | 276 | 1.0 | 4.0 | 0.00 | 0.00 | 0.00 | 54 | 1012.9 |
| 20260902222005 | 94 | 259 | 1.0 | 4.0 | 0.00 | 0.00 | 0.00 | 53 | 1013.0 |
| 20260902221503 | 95 | 261 | 1.0 | 4.0 | 0.00 | 0.00 | 0.00 | 52 | 1013.1 |
| 20260902221004 | 95 | 259 | 1.0 | 4.0 | 0.00 | 0.00 | 0.00 | 54 | 1013.1 |
| 20260902220503 | 95 | 235 | 1.0 | 6.0 | 0.00 | 0.00 | 0.00 | 52 | 1013.0 |
| 20260902215503 | 96 | 248 | 1.0 | 7.0 | 0.00 | 0.00 | 0.00 | 51 | 1013.0 |
| 20260902215006 | 96 | 187 | 0.0 | 3.0 | 0.00 | 0.00 | 0.00 | 51 | 1013.0 |
| 20260902214506 | 96 | 130 | 1.0 | 4.0 | 0.00 | 0.00 | 0.00 | 52 | 1013.0 |
| 20260902214005 | 96 | 264 | 1.0 | 4.0 | 0.00 | 0.00 | 0.00 | 51 | 1013.1 |
| 20260902213503 | 96 | 277 | 1.0 | 4.0 | 0.00 | 0.00 | 0.00 | 50 | 1013.2 |
| 20260902212503 | 96 | 285 | 2.0 | 5.0 | 0.00 | 0.00 | 0.00 | 51 | 1013.2 |
| 20260902212007 | 96 | 283 | 1.0 | 5.0 | 0.00 | 0.00 | 0.00 | 52 | 1013.3 |
| 20260902211004 | 96 | 277 | 2.0 | 7.0 | 0.00 | 0.00 | 0.00 | 51 | 1013.3 |
| 20260902210503 | 96 | 264 | 1.0 | 7.0 | 0.00 | 0.00 | 0.00 | 50 | 1013.3 |
| 20260902210011 | 96 | 242 | 1.0 | 4.0 | 0.00 | 0.00 | 0.00 | 48 | 1013.3 |
| 20260902205007 | 96 | 198 | 1.0 | 6.0 | 0.00 | 0.00 | 0.00 | 54 | 1013.2 |
| 20260902204503 | 95 | 170 | 1.0 | 6.0 | 0.00 | 0.00 | 0.00 | 51 | 1013.2 |
| 20260902204005 | 95 | 248 | 1.0 | 6.0 | 0.00 | 0.00 | 0.00 | 51 | 1013.2 |
| 20260902203504 | 95 | 264 | 1.0 | 4.0 | 0.00 | 0.00 | 0.00 | 51 | 1013.2 |
| 20260902203004 | 94 | 290 | 1.0 | 6.0 | 0.00 | 0.00 | 0.00 | 52 | 1013.2 |
| 20260902202504 | 95 | 259 | 1.0 | 6.0 | 0.00 | 0.00 | 0.00 | 51 | 1013.2 |
| 20260902201503 | 95 | 272 | 2.0 | 6.0 | 0.00 | 0.00 | 0.00 | 52 | 1013.4 |
| 20260902201005 | 94 | 255 | 2.0 | 7.0 | 0.00 | 0.00 | 0.00 | 50 | 1013.4 |
| 20260902200505 | 94 | 272 | 1.0 | 7.0 | 0.00 | 0.00 | 0.00 | 52 | 1013.5 |
| 20260902200007 | 94 | 161 | 1.0 | 7.0 | 0.00 | 0.00 | 0.00 | 52 | 1013.6 |
| 20260902195503 | 94 | 252 | 1.0 | 5.0 | 0.00 | 0.00 | 0.00 | 51 | 1013.6 |
| 20260902195005 | 95 | 278 | 1.0 | 5.0 | 0.00 | 0.00 | 0.00 | 50 | 1013.6 |
| 20260902194505 | 95 | 277 | 1.0 | 6.0 | 0.00 | 0.00 | 0.00 | 49 | 1013.6 |
| 20260902194006 | 95 | 286 | 1.0 | 6.0 | 0.00 | 0.00 | 0.00 | 49 | 1013.6 |
| 20260902193507 | 95 | 245 | 1.0 | 7.0 | 0.00 | 0.00 | 0.00 | 51 | 1013.7 |
| 20260902193004 | 95 | 246 | 2.0 | 7.0 | 0.00 | 0.00 | 0.00 | 51 | 1013.7 |
| 20260902192503 | 95 | 275 | 2.0 | 7.0 | 0.00 | 0.00 | 0.00 | 51 | 1013.6 |
| 20260902192004 | 94 | 269 | 2.0 | 7.0 | 0.00 | 0.00 | 0.00 | 51 | 1013.7 |
| 20260902191503 | 94 | 281 | 1.0 | 7.0 | 0.00 | 0.00 | 0.00 | 54 | 1013.8 |
| 20260902190505 | 94 | 241 | 1.0 | 4.0 | 0.00 | 0.00 | 0.00 | 54 | 1013.8 |
| 20260902190004 | 95 | 284 | 0.0 | 3.0 | 0.00 | 0.00 | 0.00 | 54 | 1013.8 |
| 20260902185504 | 94 | 264 | 1.0 | 3.0 | 0.00 | 0.00 | 0.00 | 52 | 1013.9 |
| 20260902185005 | 94 | 274 | 1.0 | 4.0 | 0.00 | 0.00 | 0.00 | 56 | 1013.8 |
| 20260902184505 | 94 | 264 | 1.0 | 4.0 | 0.00 | 0.00 | 0.00 | 53 | 1013.9 |
| 20260902184004 | 94 | 263 | 1.0 | 5.0 | 0.00 | 0.00 | 0.00 | 53 | 1013.9 |
| 20260902183505 | 94 | 273 | 1.0 | 5.0 | 0.00 | 0.00 | 0.00 | 53 | 1013.8 |
| 20260902183008 | 93 | 242 | 1.0 | 3.0 | 0.00 | 0.00 | 0.00 | 55 | 1013.8 |
| 20260902182503 | 93 | 213 | 1.0 | 6.0 | 0.00 | 0.00 | 0.00 | 53 | 1013.9 |
| 20260902181503 | 92 | 224 | 1.0 | 4.0 | 0.00 | 0.00 | 0.00 | 53 | 1014.0 |
| 20260902181004 | 92 | 269 | 1.0 | 5.0 | 0.00 | 0.00 | 0.00 | 55 | 1014.0 |
| 20260902180505 | 92 | 224 | 1.0 | 5.0 | 0.00 | 0.00 | 0.00 | 53 | 1014.0 |
| 20260902180008 | 92 | 286 | 1.0 | 5.0 | 0.00 | 0.00 | 0.00 | 56 | 1014.1 |
| 20260902175504 | 92 | 246 | 1.0 | 6.0 | 0.00 | 0.00 | 0.00 | 56 | 1014.2 |
| 20260902173502 | 91 | 291 | 0.0 | 3.0 | 0.00 | 0.00 | 0.00 | 57 | 1014.2 |
| 20260902173008 | 91 | 286 | 0.0 | 3.0 | 0.00 | 0.00 | 0.00 | 56 | 1014.2 |
| 20260902172505 | 91 | 293 | 0.0 | 3.0 | 0.00 | 0.00 | 0.00 | 57 | 1014.2 |
| 20260902172004 | 91 | 285 | 0.0 | 2.0 | 0.00 | 0.00 | 0.00 | 59 | 1014.3 |
| 20260902171505 | 90 | 267 | 0.0 | 2.0 | 0.00 | 0.00 | 0.00 | 59 | 1014.2 |
| 20260902171004 | 90 | 269 | 0.0 | 1.0 | 0.00 | 0.00 | 0.00 | 59 | 1014.2 |
| 20260902170007 | 89 | 267 | 1.0 | 4.0 | 0.00 | 0.00 | 0.00 | 59 | 1014.3 |
| 20260902165006 | 88 | 246 | 1.0 | 3.0 | 0.00 | 0.00 | 0.00 | 61 | 1014.3 |
| 20260902164504 | 88 | 267 | 1.0 | 4.0 | 0.00 | 0.00 | 0.00 | 62 | 1014.4 |
| 20260902164007 | 88 | 264 | 1.0 | 4.0 | 0.00 | 0.00 | 0.00 | 62 | 1014.5 |
| 20260902163007 | 87 | 255 | 1.0 | 3.0 | 0.00 | 0.00 | 0.00 | 66 | 1014.5 |
| 20260902162505 | 87 | 203 | 1.0 | 3.0 | 0.00 | 0.00 | 0.00 | 63 | 1014.5 |
| 20260902162007 | 87 | 244 | 1.0 | 4.0 | 0.00 | 0.00 | 0.00 | 64 | 1014.5 |
| 20260902161502 | 87 | 207 | 0.0 | 4.0 | 0.00 | 0.00 | 0.00 | 64 | 1014.4 |
| 20260902161007 | 86 | 272 | 1.0 | 4.0 | 0.00 | 0.00 | 0.00 | 65 | 1014.6 |
| 20260902160502 | 86 | 283 | 1.0 | 4.0 | 0.00 | 0.00 | 0.00 | 67 | 1014.5 |
| 20260902160011 | 86 | 237 | 0.0 | 2.0 | 0.00 | 0.00 | 0.00 | 67 | 1014.5 |
| 20260902155505 | 86 | 250 | 1.0 | 4.0 | 0.00 | 0.00 | 0.00 | 67 | 1014.5 |
| 20260902155005 | 85 | 284 | 0.0 | 4.0 | 0.00 | 0.00 | 0.00 | 68 | 1014.7 |
| 20260902154506 | 85 | 286 | 1.0 | 4.0 | 0.00 | 0.00 | 0.00 | 67 | 1014.7 |
| 20260902154008 | 85 | 279 | 1.0 | 6.0 | 0.00 | 0.00 | 0.00 | 68 | 1015.0 |
| 20260902153007 | 85 | 274 | 1.0 | 5.0 | 0.00 | 0.00 | 0.00 | 67 | 1014.8 |
| 20260902152505 | 85 | 236 | 1.0 | 5.0 | 0.00 | 0.00 | 0.00 | 68 | 1014.8 |
| 20260902152005 | 85 | 288 | 1.0 | 6.0 | 0.00 | 0.00 | 0.00 | 69 | 1014.7 |
| 20260902151006 | 84 | 273 | 1.0 | 3.0 | 0.00 | 0.00 | 0.00 | 70 | 1014.7 |
| 20260902150505 | 84 | 279 | 1.0 | 3.0 | 0.00 | 0.00 | 0.00 | 71 | 1014.8 |
| 20260902150008 | 84 | 281 | 1.0 | 4.0 | 0.00 | 0.00 | 0.00 | 71 | 1014.6 |
| 20260902145502 | 83 | 281 | 1.0 | 4.0 | 0.00 | 0.00 | 0.00 | 71 | 1014.7 |
| 20260902145007 | 83 | 279 | 0.0 | 4.0 | 0.00 | 0.00 | 0.00 | 72 | 1014.6 |
| 20260902144504 | 83 | 290 | 0.0 | 4.0 | 0.00 | 0.00 | 0.00 | 72 | 1014.5 |
| 20260902144004 | 82 | 281 | 1.0 | 6.0 | 0.00 | 0.00 | 0.00 | 72 | 1014.5 |
| 20260902143502 | 82 | 281 | 1.0 | 6.0 | 0.00 | 0.00 | 0.00 | 73 | 1014.7 |
| 20260902143004 | 82 | 285 | 0.0 | 6.0 | 0.00 | 0.00 | 0.00 | 74 | 1014.8 |
| 20260902142506 | 82 | 232 | 1.0 | 3.0 | 0.00 | 0.00 | 0.00 | 73 | 1014.6 |
| 20260902142004 | 81 | 286 | 1.0 | 4.0 | 0.00 | 0.00 | 0.00 | 74 | 1014.7 |
| 20260902141505 | 81 | 282 | 0.0 | 4.0 | 0.00 | 0.00 | 0.00 | 75 | 1014.7 |
| 20260902141003 | 81 | 242 | 0.0 | 2.0 | 0.00 | 0.00 | 0.00 | 74 | 1014.7 |
| 20260902140503 | 81 | 284 | 1.0 | 4.0 | 0.00 | 0.00 | 0.00 | 74 | 1014.7 |
| 20260902140007 | 81 | 260 | 0.0 | 4.0 | 0.00 | 0.00 | 0.00 | 74 | 1014.7 |
| 20260902135502 | 81 | 239 | 0.0 | 2.0 | 0.00 | 0.00 | 0.00 | 75 | 1014.6 |
| 20260902135004 | 80 | 261 | 0.0 | 1.0 | 0.00 | 0.00 | 0.00 | 76 | 1014.6 |
| 20260902134503 | 80 | 261 | 0.0 | 0.0 | 0.00 | 0.00 | 0.00 | 76 | 1014.6 |
| 20260902134007 | 79 | 261 | 0.0 | 0.0 | 0.00 | 0.00 | 0.00 | 76 | 1014.6 |
| 20260902132004 | 78 | 258 | 0.0 | 0.0 | 0.00 | 0.00 | 0.00 | 78 | 1014.7 |
| 20260902131504 | 78 | 242 | 0.0 | 0.0 | 0.00 | 0.00 | 0.00 | 78 | 1014.7 |
| 20260902131005 | 78 | 242 | 0.0 | 0.0 | 0.00 | 0.00 | 0.00 | 79 | 1014.9 |
| 20260902130502 | 77 | 242 | 0.0 | 0.0 | 0.00 | 0.00 | 0.00 | 79 | 1014.8 |
| 20260902130005 | 77 | 242 | 0.0 | 0.0 | 0.00 | 0.00 | 0.00 | 79 | 1014.8 |
| 20260902125502 | 77 | 242 | 0.0 | 1.0 | 0.00 | 0.00 | 0.00 | 79 | 1014.8 |
| 20260902125003 | 77 | 238 | 0.0 | 0.0 | 0.00 | 0.00 | 0.00 | 80 | 1014.8 |
| 20260902124503 | 77 | 238 | 0.0 | 0.0 | 0.00 | 0.00 | 0.00 | 80 | 1014.8 |
| 20260902124003 | 76 | 238 | 0.0 | 0.0 | 0.00 | 0.00 | 0.00 | 81 | 1014.7 |
| 20260902123505 | 76 | 238 | 0.0 | 0.0 | 0.00 | 0.00 | 0.00 | 81 | 1014.8 |
| 20260902123004 | 76 | 238 | 0.0 | 0.0 | 0.00 | 0.00 | 0.00 | 81 | 1014.6 |
| 20260902122503 | 76 | 238 | 0.0 | 0.0 | 0.00 | 0.00 | 0.00 | 81 | 1014.7 |
| 20260902122004 | 76 | 238 | 0.0 | 0.0 | 0.00 | 0.00 | 0.00 | 81 | 1014.6 |
| 20260902121503 | 76 | 238 | 0.0 | 0.0 | 0.00 | 0.00 | 0.00 | 81 | 1014.7 |
| 20260902121004 | 76 | 238 | 0.0 | 0.0 | 0.00 | 0.00 | 0.00 | 81 | 1014.7 |
| 20260902120503 | 76 | 238 | 0.0 | 0.0 | 0.00 | 0.00 | 0.00 | 81 | 1014.7 |
| 20260902120006 | 76 | 238 | 0.0 | 0.0 | 0.00 | 0.00 | 0.00 | 81 | 1014.7 |
| 20260902115503 | 76 | 238 | 0.0 | 0.0 | 0.00 | 0.00 | 0.00 | 81 | 1014.6 |
| 20260902115004 | 76 | 238 | 0.0 | 0.0 | 0.00 | 0.00 | 0.00 | 81 | 1014.6 |
| 20260902114004 | 76 | 238 | 0.0 | 0.0 | 0.00 | 0.00 | 0.00 | 80 | 1014.5 |
| 20260902113503 | 76 | 238 | 0.0 | 0.0 | 0.00 | 0.00 | 0.00 | 80 | 1014.4 |
| 20260902113004 | 76 | 238 | 0.0 | 0.0 | 0.00 | 0.00 | 0.00 | 80 | 1014.4 |
| 20260902112004 | 76 | 238 | 0.0 | 0.0 | 0.00 | 0.00 | 0.00 | 80 | 1014.6 |
| 20260902111503 | 76 | 238 | 0.0 | 0.0 | 0.00 | 0.00 | 0.00 | 80 | 1014.6 |
| 20260902110008 | 76 | 238 | 0.0 | 0.0 | 0.00 | 0.00 | 0.00 | 80 | 1014.6 |
| 20260902105504 | 76 | 238 | 0.0 | 0.0 | 0.00 | 0.00 | 0.00 | 81 | 1014.6 |
| 20260902105003 | 76 | 238 | 0.0 | 0.0 | 0.00 | 0.00 | 0.00 | 81 | 1014.6 |
| 20260902104504 | 76 | 238 | 0.0 | 0.0 | 0.00 | 0.00 | 0.00 | 81 | 1014.6 |
| 20260902104004 | 76 | 238 | 0.0 | 0.0 | 0.00 | 0.00 | 0.00 | 81 | 1014.6 |
| 20260902103503 | 76 | 238 | 0.0 | 0.0 | 0.00 | 0.00 | 0.00 | 81 | 1014.6 |
| 20260902103004 | 76 | 238 | 0.0 | 0.0 | 0.00 | 0.00 | 0.00 | 81 | 1014.6 |
| 20260902102503 | 76 | 238 | 0.0 | 0.0 | 0.00 | 0.00 | 0.00 | 81 | 1014.6 |
| 20260902102008 | 76 | 238 | 0.0 | 0.0 | 0.00 | 0.00 | 0.00 | 81 | 1014.6 |
| 20260902101503 | 76 | 238 | 0.0 | 0.0 | 0.00 | 0.00 | 0.00 | 81 | 1014.6 |
| 20260902101004 | 76 | 238 | 0.0 | 0.0 | 0.00 | 0.00 | 0.00 | 81 | 1014.5 |
| 20260902100006 | 76 | 238 | 0.0 | 0.0 | 0.00 | 0.00 | 0.00 | 80 | 1014.6 |
| 20260902095505 | 76 | 238 | 0.0 | 0.0 | 0.00 | 0.00 | 0.00 | 80 | 1014.6 |
| 20260902095004 | 76 | 238 | 0.0 | 0.0 | 0.00 | 0.00 | 0.00 | 80 | 1014.5 |
| 20260902094503 | 77 | 238 | 0.0 | 0.0 | 0.00 | 0.00 | 0.00 | 80 | 1014.5 |
| 20260902094004 | 77 | 238 | 0.0 | 0.0 | 0.00 | 0.00 | 0.00 | 80 | 1014.5 |
| 20260902093504 | 77 | 238 | 0.0 | 0.0 | 0.00 | 0.00 | 0.00 | 80 | 1014.6 |
| 20260902093004 | 77 | 238 | 0.0 | 0.0 | 0.00 | 0.00 | 0.00 | 80 | 1014.5 |
| 20260902092503 | 77 | 238 | 0.0 | 0.0 | 0.00 | 0.00 | 0.00 | 80 | 1014.6 |
| 20260902092004 | 77 | 238 | 0.0 | 0.0 | 0.00 | 0.00 | 0.00 | 80 | 1014.5 |
| 20260902091503 | 77 | 238 | 0.0 | 0.0 | 0.00 | 0.00 | 0.00 | 80 | 1014.4 |
| 20260902091004 | 77 | 238 | 0.0 | 0.0 | 0.00 | 0.00 | 0.00 | 80 | 1014.3 |
| 20260902090503 | 77 | 238 | 0.0 | 0.0 | 0.00 | 0.00 | 0.00 | 80 | 1014.2 |
| 20260902090006 | 77 | 238 | 0.0 | 0.0 | 0.00 | 0.00 | 0.00 | 81 | 1014.3 |
| 20260902085503 | 77 | 238 | 0.0 | 0.0 | 0.00 | 0.00 | 0.00 | 81 | 1014.2 |
| 20260902085004 | 77 | 238 | 0.0 | 0.0 | 0.00 | 0.00 | 0.00 | 81 | 1014.3 |
| 20260902084004 | 77 | 238 | 0.0 | 0.0 | 0.00 | 0.00 | 0.00 | 81 | 1014.3 |
| 20260902083504 | 77 | 238 | 0.0 | 0.0 | 0.00 | 0.00 | 0.00 | 81 | 1014.4 |
| 20260902083004 | 77 | 238 | 0.0 | 0.0 | 0.00 | 0.00 | 0.00 | 81 | 1014.3 |
| 20260902082503 | 77 | 238 | 0.0 | 0.0 | 0.00 | 0.00 | 0.00 | 81 | 1014.3 |
| 20260902082004 | 77 | 238 | 0.0 | 0.0 | 0.00 | 0.00 | 0.00 | 81 | 1014.3 |
| 20260902081504 | 77 | 238 | 0.0 | 0.0 | 0.00 | 0.00 | 0.00 | 81 | 1014.2 |
| 20260902081004 | 77 | 238 | 0.0 | 0.0 | 0.00 | 0.00 | 0.00 | 81 | 1014.3 |
| 20260902080503 | 77 | 238 | 0.0 | 0.0 | 0.00 | 0.00 | 0.00 | 80 | 1014.4 |
| 20260902075004 | 77 | 238 | 0.0 | 0.0 | 0.00 | 0.00 | 0.00 | 80 | 1014.2 |
| 20260902074503 | 78 | 238 | 0.0 | 0.0 | 0.00 | 0.00 | 0.00 | 80 | 1014.3 |
| 20260902073504 | 78 | 238 | 0.0 | 0.0 | 0.00 | 0.00 | 0.00 | 80 | 1014.2 |
| 20260902073004 | 78 | 238 | 0.0 | 0.0 | 0.00 | 0.00 | 0.00 | 80 | 1014.2 |
| 20260902072503 | 78 | 238 | 0.0 | 0.0 | 0.00 | 0.00 | 0.00 | 80 | 1014.2 |
| 20260902072005 | 78 | 238 | 0.0 | 0.0 | 0.00 | 0.00 | 0.00 | 80 | 1014.3 |
| 20260902071503 | 78 | 238 | 0.0 | 0.0 | 0.00 | 0.00 | 0.00 | 79 | 1014.1 |
| 20260902071007 | 78 | 238 | 0.0 | 0.0 | 0.00 | 0.00 | 0.00 | 79 | 1014.0 |
| 20260902070502 | 79 | 238 | 0.0 | 0.0 | 0.00 | 0.00 | 0.00 | 79 | 1014.1 |
| 20260902070007 | 79 | 238 | 0.0 | 0.0 | 0.00 | 0.00 | 0.00 | 79 | 1014.1 |
| 20260902065003 | 79 | 238 | 0.0 | 0.0 | 0.00 | 0.00 | 0.00 | 79 | 1014.3 |
| 20260902064004 | 79 | 238 | 0.0 | 0.0 | 0.00 | 0.00 | 0.00 | 79 | 1014.3 |
| 20260902063503 | 79 | 238 | 0.0 | 0.0 | 0.00 | 0.00 | 0.00 | 79 | 1014.3 |
| 20260902063004 | 79 | 238 | 0.0 | 0.0 | 0.00 | 0.00 | 0.00 | 79 | 1014.4 |
| 20260902062503 | 79 | 238 | 0.0 | 0.0 | 0.00 | 0.00 | 0.00 | 79 | 1014.4 |
| 20260902062004 | 79 | 238 | 0.0 | 0.0 | 0.00 | 0.00 | 0.00 | 79 | 1014.3 |
| 20260902061503 | 79 | 238 | 0.0 | 0.0 | 0.00 | 0.00 | 0.00 | 79 | 1014.3 |
| 20260902060007 | 79 | 238 | 0.0 | 0.0 | 0.00 | 0.00 | 0.00 | 79 | 1014.2 |
| 20260902054504 | 79 | 238 | 0.0 | 0.0 | 0.00 | 0.00 | 0.00 | 79 | 1014.1 |
| 20260902054007 | 80 | 238 | 0.0 | 0.0 | 0.00 | 0.00 | 0.00 | 78 | 1014.1 |
| 20260902053506 | 80 | 238 | 0.0 | 1.0 | 0.00 | 0.00 | 0.00 | 78 | 1014.2 |
| 20260902053006 | 80 | 238 | 0.0 | 1.0 | 0.00 | 0.00 | 0.00 | 78 | 1014.3 |
| 20260902052503 | 80 | 238 | 0.0 | 0.0 | 0.00 | 0.00 | 0.00 | 77 | 1014.3 |
| 20260902052005 | 80 | 238 | 0.0 | 0.0 | 0.00 | 0.00 | 0.00 | 77 | 1014.3 |
| 20260902051008 | 80 | 238 | 0.0 | 0.0 | 0.00 | 0.00 | 0.00 | 77 | 1014.3 |
| 20260902050504 | 80 | 238 | 0.0 | 0.0 | 0.00 | 0.00 | 0.00 | 77 | 1014.4 |